Weather History for KLAW - November, 2011

Change the Weather History Date:

Sunday, November 13, 2011

  Actual Average Record
Temperature  
Mean Temperature 64 °F -  
Max Temperature 81 °F 63 °F 84 °F (1955)
Min Temperature 46 °F 37 °F 14 °F (2013)
Degree Days  
Heating Degree Days 2    
Growing Degree Days 14 (Base 50)    
Moisture  
Dew Point 42 °F    
Average Humidity 44    
Maximum Humidity 76    
Minimum Humidity 21    
Precipitation  
Precipitation 0.00 in - - ()
Sea Level Pressure  
Sea Level Pressure 29.68 in    
Wind  
Wind Speed 10 mph (SSW)    
Max Wind Speed 22 mph    
Max Gust Speed 33 mph    
Visibility 10 miles    
Events      
Averages and records for this station are not official NWS values.
T = Trace of Precipitation, MM = Missing Value Source: NWS Daily Summary

Daily Weather History Graph

Daily Weather History Graph

Search for Another Location

Airport or City:

Trip Planner

Search our weather history database for the weather conditions in past years. The results will help you decide how hot, cold, wet, or windy it might be!

Date:

Astronomy

Nov. 13, 2011 Rise Set
Actual Time 7:05 AM CST 5:30 PM CST
Civil Twilight 6:38 AM CST 5:57 PM CST
Nautical Twilight 6:08 AM CST 6:27 PM CST
Astronomical Twilight 5:38 AM CST 6:57 PM CST
Moon 7:44 PM CST (11/13) 9:34 AM CST (11/13)
Length of Visible Light 11h 18m
Length of Day
10h 25m
Waning Gibbous, 92% of the Moon is Illuminated
Nov 13
Waning Gibbous
Nov 18
Last Quarter
Nov 25
New
Dec 2
First Quarter
Dec 10
Full

Hourly Weather History & Observations

Time (CST) Temp. Dew Point Humidity Pressure Visibility Wind Dir Wind Speed Gust Speed Precip Events Conditions
12:53 AM 60.1 °F 37.9 °F 44% 29.68 in 10.0 mi SSW 10.4 mph 17.3 mph N/A   Clear
1:53 AM 61.0 °F 37.9 °F 42% 29.67 in 10.0 mi SW 11.5 mph 18.4 mph N/A   Clear
2:53 AM 57.9 °F 37.9 °F 47% 29.69 in 10.0 mi Calm Calm - N/A   Clear
3:53 AM 55.0 °F 37.9 °F 53% 29.71 in 10.0 mi WNW 3.5 mph - N/A   Clear
4:53 AM 48.0 °F 37.9 °F 68% 29.72 in 10.0 mi Calm Calm - N/A   Clear
5:53 AM 46.9 °F 39.0 °F 74% 29.72 in 10.0 mi Calm Calm - N/A   Clear
6:53 AM 46.0 °F 39.0 °F 76% 29.72 in 10.0 mi Calm Calm - N/A   Clear
7:53 AM 52.0 °F 42.1 °F 69% 29.72 in 10.0 mi South 3.5 mph - N/A   Clear
8:53 AM 62.1 °F 44.1 °F 52% 29.72 in 10.0 mi SSW 16.1 mph 25.3 mph N/A   Clear
9:53 AM 69.1 °F 43.0 °F 39% 29.72 in 10.0 mi SW 17.3 mph 28.8 mph N/A   Clear
10:53 AM 72.0 °F 42.1 °F 34% 29.71 in 10.0 mi SW 18.4 mph 28.8 mph N/A   Clear
11:53 AM 75.9 °F 41.0 °F 29% 29.70 in 10.0 mi SW 18.4 mph 26.5 mph N/A   Clear
12:53 PM 77.0 °F 42.1 °F 29% 29.65 in 10.0 mi SW 19.6 mph 27.6 mph N/A   Clear
1:53 PM 80.1 °F 39.0 °F 23% 29.63 in 10.0 mi SW 21.9 mph 33.4 mph N/A   Clear
2:53 PM 81.0 °F 37.9 °F 21% 29.63 in 10.0 mi SW 19.6 mph 32.2 mph N/A   Clear
3:53 PM 81.0 °F 39.0 °F 22% 29.63 in 10.0 mi SSW 15.0 mph 27.6 mph N/A   Clear
4:53 PM 75.9 °F 43.0 °F 31% 29.65 in 10.0 mi South 12.7 mph - N/A   Clear
5:53 PM 72.0 °F 45.0 °F 38% 29.67 in 10.0 mi South 12.7 mph - N/A   Clear
6:53 PM 70.0 °F 46.0 °F 42% 29.69 in 10.0 mi SSW 9.2 mph - N/A   Clear
7:53 PM 69.1 °F 45.0 °F 42% 29.68 in 10.0 mi South 15.0 mph - N/A   Clear
8:53 PM 70.0 °F 45.0 °F 41% 29.68 in 10.0 mi SSW 11.5 mph - N/A   Clear
9:53 PM 66.9 °F 46.0 °F 47% 29.68 in 10.0 mi SSW 10.4 mph - N/A   Clear
10:53 PM 66.0 °F 46.0 °F 48% 29.68 in 10.0 mi SSW 11.5 mph - N/A   Clear
11:53 PM 66.0 °F 46.0 °F 48% 29.67 in 10.0 mi SW 8.1 mph - N/A   Clear